Location: Camaret
(48.2753°N, 4.5961°W)
Time: 04:02:17
(UTC+00:00)

ATLAS 2AS CENTAUR R/B - Pass Details

Date: 29 October 2020
Orbit: 939 x 1273 km, 63.7° (Epoch: 23 November)

Event Time Altitude Azimuth Distance (km) Brightness Sun altitude
Rises 20:03:04 0° 318° (NW) 4,150 6.6 -30.2°
Reaches altitude 10° 20:05:55 10° 318° (NW) 3,143 5.8 -30.7°
Maximum altitude 20:13:26 79° 234° (SW) 1,154 2.7 -31.9°
Enters shadow 20:13:44 78° 203° (SSW) 1,157 2.7 -32.0°
